Location: Alsip
(41.6689°N, 87.7387°W)
Time: 12:51:15
(UTC+00:00)

Cosmos 2263 - Pass Details

Date: 14 July 2020
Orbit: 830 x 866 km, 70.9° (Epoch: 04 August)

Event Time Altitude Azimuth Distance (km) Brightness Sun altitude
Rises 05:09:34 0° 335° (NNW) 3,441 8.6 -25.8°
Reaches altitude 10° 05:12:01 10° 335° (NNW) 2,505 7.6 -25.9°
Maximum altitude 05:17:48 86° 249° (WSW) 872 4.1 -26.1°
Enters shadow 05:18:22 74° 171° (S) 900 4.1 -26.1°
